Wind_Speed
24 26 26 25 24 26 27 26 25 24 23 22 22 19 20 22 19 16 13 16 12 8 7 6 6 9 11 10 10 3 3 5 10 20 17 11 6 5 3 3 2 3 2 5 7 9 10
24 25 26 26 27 27 26 27 27 26 26 20 20 17 21 20 20 19 11 14 12 9 8 7 6 8 11 6 12 18 7 4 6 16 19 14 5 6 2 3 3 3 4 7 9 12 12
25 26 26 27 27 27 27 26 27 29 27 23 18 20 18 21 20 20 12 12 13 9 8 8 7 7 11 18 10 8 13 10 7 13 14 16 13 8 4 1 2 5 5 8 11 12 9
24 24 27 27 27 28 30 30 31 31 27 25 20 19 21 23 20 20 17 12 11 9 7 7 7 7 7 6 13 16 13 12 12 13 8 7 8 8 4 1 3 2 3 3 3 1 7
25 23 27 27 28 28 29 30 31 30 26 27 23 22 22 18 20 20 20 13 10 11 9 9 9 7 7 6 8 9 14 17 14 11 8 7 7 5 3 3 2 3 3 5 5 5 3
26 24 27 30 30 30 31 32 31 31 29 24 25 22 24 18 20 19 24 15 13 12 10 8 9 5 9 2 5 7 15 12 14 15 8 7 6 4 3 4 5 4 5 4 4 1 3
27 27 30 31 28 32 31 32 32 29 30 29 27 21 22 25 16 18 28 23 11 5 17 11 9 3 4 6 8 6 16 15 11 13 5 4 5 9 11 6 5 1 3 7 5 8 10
30 30 29 30 31 32 30 31 32 29 30 30 27 21 22 23 20 9 38 34 29 9 7 29 11 16 4 9 5 8 15 12 8 4 6 3 10 11 1 8 10 11 13 15 10 6 8
28 29 30 30 32 32 31 31 32 31 30 28 27 22 22 22 23 21 41 33 26 20 4 4 26 18 10 9 4 13 19 9 4 5 7 5 2 2 10 6 9 11 12 13 13 8 13
30 33 33 33 33 31 30 31 32 31 28 27 27 26 23 19 20 23 38 29 23 17 4 4 5 5 16 11 4 15 19 9 3 10 5 9 10 6 4 6 8 15 5 11 13 7 7
31 33 32 33 33 31 30 31 31 30 31 34 29 27 22 16 16 17 34 32 25 14 2 4 4 8 13 16 10 8 21 6 7 6 5 4 6 5 12 11 7 6 5 6 8 8 8
32 33 33 34 33 32 30 30 30 31 33 32 37 26 17 15 20 25 38 35 26 5 6 6 6 7 8 8 5 6 10 5 6 4 5 6 3 6 8 7 13 3 2 8 2 5 8
31 32 33 33 32 31 28 29 31 30 29 35 37 23 14 15 16 20 45 33 3 4 3 8 6 8 10 7 6 7 9 8 5 4 6 5 15 5 4 3 1 9 3 2 4 6 7
31 31 33 33 32 31 28 30 30 29 32 38 41 14 13 16 22 5 43 7 4 5 4 4 6 9 5 9 4 7 10 8 11 2 1 4 5 11 8 14 7 11 11 6 5 5 4
34 32 33 32 31 31 28 29 31 29 32 35 32 4 11 13 11 16 27 3 6 6 9 10 11 6 3 3 3 5 7 5 9 15 7 4 4 1 7 5 7 4 10 10 5 11 6
32 33 33 32 32 30 29 30 28 32 33 35 25 8 11 10 14 4 2 4 3 3 14 10 5 5 9 9 7 9 7 4 5 10 11 2 5 5 2 6 6 6 1 3 5 5 8
33 35 33 31 31 30 28 28 27 31 31 31 13 3 4 5 11 4 2 2 5 6 9 4 4 5 6 7 7 6 5 3 6 5 12 5 5 2 4 9 11 8 6 5 3 4 3
33 33 33 31 30 30 29 27 27 31 32 19 15 2 17 16 4 2 3 5 6 4 3 4 4 5 5 6 5 4 5 5 9 10 9 8 3 5 9 7 15 14 15 18 9 8 4
32 31 31 31 30 30 30 27 26 30 33 27 13 2 17 15 3 3 2 3 5 3 2 2 3 3 3 4 5 5 3 5 15 9 10 9 4 3 5 1 4 8 14 20 16 8 16
31 31 31 30 30 29 30 26 27 32 33 28 4 1 4 5 1 6 4 3 5 4 3 3 3 4 3 3 3 3 4 3 17 11 11 13 5 8 10 12 2 6 16 18 16 6 14
31 30 30 30 30 28 31 25 29 32 33 5 4 0 4 3 1 5 3 3 5 3 2 4 2 3 5 4 4 4 5 3 6 12 9 8 7 12 19 23 18 18 12 19 19 22 12
30 30 29 29 30 29 30 24 27 30 36 7 8 1 2 7 9 6 4 4 6 4 4 3 3 6 7 4 6 4 5 5 5 5 8 6 5 4 17 19 21 22 23 21 21 21 21
31 30 28 27 28 29 32 25 24 28 34 9 15 8 2 10 6 5 4 7 6 6 5 4 6 4 8 8 9 14 12 10 5 6 11 4 3 3 11 6 10 8 13 20 20 21 15
29 30 29 27 26 27 27 27 28 26 31 26 17 7 2 4 7 6 9 5 5 7 2 1 10 4 4 2 7 9 13 17 16 12 11 5 3 3 6 7 3 3 5 12 19 17 21
28 28 26 26 25 24 25 26 23 23 29 27 18 4 3 3 6 6 9 7 3 3 4 3 6 6 8 6 2 4 0 3 7 11 10 14 3 3 3 6 7 5 7 1 8 9 19
28 28 25 25 26 24 23 26 25 22 27 27 6 2 3 3 8 8 5 7 3 3 1 3 7 9 6 3 2 2 3 4 3 1 7 5 4 1 3 4 4 3 5 3 1 3 3
26 26 26 23 23 25 24 24 24 20 24 27 5 15 1 2 2 14 7 7 7 5 1 1 3 4 9 3 3 4 3 2 3 2 3 3 2 3 4 4 7 3 5 2 4 6 8
24 24 23 22 22 22 23 24 25 22 22 27 12 10 8 4 4 14 15 9 7 9 4 4 2 1 2 2 2 3 3 4 2 4 5 6 5 4 3 3 6 1 2 1 3 10 6
24 23 23 24 23 23 21 20 22 20 19 21 20 9 3 1 3 7 11 13 13 10 12 9 1 3 5 3 4 3 4 1 3 3 1 3 5 3 7 5 4 5 9 12 13 10 5
Wind_Direction
358 356 357 351 346 344 344 341 339 322 323 303 313 268 267 266 260 272 293 289 261 250 252 248 233 217 208 218 226 238 249 234 205 202 202 205 191 144 181 192 152 228 271 255 262 282 271
352 353 350 349 348 348 341 336 337 332 328 318 292 320 259 265 256 259 270 287 258 242 234 245 237 222 212 227 242 238 242 202 179 196 204 205 183 204 214 215 178 221 250 269 282 268 260
352 347 348 345 345 344 336 333 335 331 327 321 304 307 280 254 249 244 247 283 262 233 229 237 241 230 229 237 243 228 206 202 196 184 193 207 206 176 174 210 243 259 290 280 243 237 240
345 343 345 344 344 343 340 337 329 326 322 319 305 315 296 247 244 234 242 261 259 212 221 226 238 242 244 250 239 234 199 175 165 163 153 160 181 214 211 258 330 227 211 257 269 228 240
345 344 345 343 339 338 338 336 332 327 324 320 309 302 306 263 244 232 225 220 237 210 213 216 222 228 261 244 241 230 199 189 177 176 161 151 163 178 149 145 309 215 252 230 303 201 288
346 341 342 333 332 332 332 333 331 328 319 318 314 302 298 277 243 225 220 193 185 200 204 204 223 257 237 191 182 191 184 186 198 205 183 179 183 170 178 172 224 195 230 242 228 335 348
329 333 331 331 332 331 331 329 327 321 315 321 315 293 300 288 251 231 190 161 152 182 198 194 206 188 111 143 142 160 180 162 162 161 168 186 201 211 204 201 208 163 248 248 264 288 310
330 332 337 330 331 328 327 327 326 319 309 314 316 306 289 274 259 259 196 183 187 166 188 221 225 214 151 170 135 163 166 164 156 164 135 151 236 235 314 207 230 248 262 269 293 286 285
332 330 329 328 325 328 326 326 323 316 317 316 314 309 302 295 252 244 194 193 198 196 101 213 227 230 204 193 188 184 173 163 141 149 191 194 141 156 199 208 226 237 245 269 270 296 279
329 328 329 330 328 325 324 325 323 321 324 319 316 302 300 293 266 253 198 175 182 180 83 219 187 221 191 156 258 213 184 161 154 189 171 249 240 221 172 208 199 256 218 243 256 264 268
330 330 329 328 329 327 324 327 323 324 320 315 316 316 281 267 243 226 187 170 173 168 61 145 158 146 161 165 143 194 190 163 155 174 154 216 186 185 219 231 169 231 197 223 229 240 286
328 327 328 328 330 329 327 328 326 324 323 308 320 312 280 261 244 246 182 166 154 68 239 153 134 165 150 199 140 123 173 189 169 183 234 219 189 170 192 197 192 116 293 251 238 236 247
330 330 333 332 332 331 328 329 329 325 318 317 327 311 255 231 211 229 169 153 130 148 141 155 170 163 168 163 171 153 172 182 180 174 213 224 231 185 160 163 205 164 172 241 228 213 244
334 332 327 336 336 333 334 333 330 325 323 327 325 293 233 220 212 229 159 173 132 157 161 147 128 132 169 144 205 166 162 199 221 162 167 199 310 185 183 214 201 182 183 202 226 219 240
334 334 337 340 338 337 337 334 330 324 328 332 338 271 213 215 214 239 161 156 178 183 143 133 124 146 169 185 141 164 204 206 196 190 197 189 265 353 192 185 202 188 213 233 265 264 268
341 338 341 341 339 339 340 337 332 329 337 337 336 282 216 213 192 180 166 132 109 105 120 139 130 176 174 179 172 183 184 211 211 179 192 159 275 216 172 172 236 206 200 173 191 241 247
339 343 343 344 343 340 341 341 333 337 342 332 340 227 183 173 175 183 152 171 111 141 125 130 116 147 150 166 172 181 209 285 186 184 176 137 209 256 147 202 201 200 228 211 278 222 242
342 345 346 347 348 348 345 343 335 340 347 341 348 237 147 144 110 149 147 177 114 111 59 98 100 103 135 142 162 188 218 228 185 141 178 198 216 237 233 209 204 213 230 219 233 222 228
345 348 348 350 350 346 349 343 335 341 347 344 328 244 149 154 144 122 226 66 85 101 97 83 91 83 118 151 152 199 189 230 171 165 172 163 214 297 291 29 216 221 218 225 227 246 237
348 349 348 349 345 347 348 345 342 342 342 334 279 149 115 147 95 127 160 88 96 59 98 93 106 95 109 150 238 163 223 261 194 196 182 174 211 211 243 251 175 231 224 218 220 226 245
347 348 348 347 347 351 348 348 343 344 351 355 216 261 144 164 132 154 115 101 111 114 102 165 116 201 179 192 194 219 214 237 171 200 189 181 252 239 252 263 266 254 238 214 217 230 227
347 348 348 348 348 345 348 350 345 348 5 36 358 28 47 152 140 132 91 184 175 134 165 171 173 183 188 219 204 205 208 189 207 177 186 195 261 255 270 263 255 257 250 229 223 225 237
346 347 347 348 347 348 348 353 349 350 6 353 352 0 121 160 157 153 197 164 183 132 230 170 205 183 208 239 250 250 257 261 237 175 195 213 235 259 275 307 276 251 253 232 229 221 220
346 348 347 349 347 347 349 352 350 351 357 354 342 332 284 169 167 189 170 172 147 188 119 81 174 204 208 213 257 278 250 248 244 241 211 198 191 236 292 305 268 313 303 238 220 225 224
348 348 345 344 345 346 349 351 350 350 351 350 339 252 243 124 192 184 161 191 181 251 194 188 233 225 274 288 319 300 306 271 242 232 224 218 156 280 287 304 276 326 331 32 178 237 225
347 348 347 344 346 346 348 349 348 350 349 352 82 353 291 142 213 183 140 173 149 179 122 233 253 270 215 183 162 251 225 250 302 9 2 179 152 178 340 309 319 288 330 23 286 301 271
348 348 347 345 343 343 345 347 348 345 350 355 10 13 29 284 213 179 171 172 140 145 172 135 179 167 189 165 216 220 240 250 257 211 179 151 195 219 241 273 284 281 307 315 5 305 339
348 347 347 341 342 343 342 346 343 348 350 346 335 19 11 337 154 193 195 161 144 182 164 160 142 162 134 212 226 234 224 233 212 222 185 182 160 204 186 234 293 354 59 163 261 316 330
352 349 350 347 343 341 343 342 337 347 345 338 336 9 64 174 194 190 202 219 219 219 194 172 172 128 195 222 221 235 217 207 193 262 29 237 194 187 179 219 231 217 248 284 303 295 309
Height
1511 1508 1503 1500 1497 1493 1489 1484 1481 1479 1477 1475 1473 1471 1472 1473 1473 1473 1473 1474 1472 1473 1476 1475 1476 1478 1480 1482 1479 1480 1480 1481 1482 1485 1490 1492 1494 1496 1499 1500 1500 1502 1498 1498 1498 1498 1497
1510 1506 1503 1499 1495 1491 1487 1483 1479 1475 1471 1469 1468 1466 1465 1466 1467 1469 1470 1471 1470 1471 1474 1474 1475 1476 1478 1481 1477 1478 1480 1480 1481 1484 1488 1490 1492 1495 1499 1499 1500 1498 1498 1497 1496 1495 1494
1507 1504 1499 1496 1492 1488 1484 1480 1476 1471 1467 1464 1462 1461 1458 1459 1461 1464 1466 1467 1468 1470 1472 1473 1473 1474 1475 1473 1473 1475 1478 1479 1481 1483 1486 1489 1492 1495 1498 1499 1498 1498 1499 1495 1491 1489 1490
1505 1499 1497 1493 1489 1485 1481 1477 1474 1467 1463 1460 1457 1455 1453 1453 1455 1458 1462 1464 1465 1468 1470 1471 1472 1473 1471 1469 1470 1472 1475 1478 1480 1483 1486 1488 1492 1495 1496 1498 1497 1497 1498 1495 1487 1485 1485
1502 1498 1493 1490 1486 1482 1478 1474 1469 1464 1460 1456 1452 1450 1449 1447 1450 1453 1455 1460 1463 1466 1468 1470 1471 1472 1468 1466 1467 1468 1473 1476 1480 1483 1486 1488 1491 1493 1496 1498 1500 1496 1496 1494 1489 1483 1483
1503 1498 1493 1487 1481 1477 1473 1469 1465 1460 1456 1451 1448 1446 1443 1443 1444 1448 1451 1454 1459 1464 1466 1469 1470 1473 1466 1464 1465 1466 1471 1475 1479 1482 1487 1488 1490 1492 1493 1494 1496 1494 1494 1493 1490 1485 1484
1498 1492 1490 1484 1478 1474 1468 1464 1460 1456 1451 1447 1443 1441 1439 1437 1438 1441 1441 1448 1459 1465 1463 1460 1461 1463 1461 1463 1464 1467 1470 1474 1478 1481 1485 1486 1488 1487 1488 1490 1490 1492 1494 1493 1490 1485 1485
1495 1489 1483 1479 1474 1470 1464 1460 1455 1450 1445 1441 1437 1435 1433 1433 1431 1432 1429 1434 1440 1446 1456 1456 1458 1460 1461 1461 1464 1467 1469 1474 1477 1480 1483 1488 1484 1482 1485 1487 1489 1489 1490 1486 1483 1484 1484
1490 1486 1479 1474 1469 1465 1459 1454 1449 1444 1439 1435 1432 1430 1428 1427 1427 1425 1422 1428 1437 1441 1450 1451 1452 1455 1459 1462 1462 1464 1468 1470 1474 1479 1480 1480 1480 1479 1483 1486 1487 1486 1486 1486 1487 1486 1482
1489 1483 1477 1469 1463 1458 1454 1449 1444 1438 1434 1430 1427 1425 1423 1422 1424 1418 1420 1423 1433 1441 1459 1450 1450 1450 1454 1459 1461 1461 1464 1468 1472 1474 1478 1476 1475 1479 1483 1485 1487 1486 1484 1484 1486 1489 1482
1484 1478 1472 1466 1459 1454 1448 1444 1439 1434 1430 1425 1421 1417 1415 1418 1415 1415 1418 1422 1430 1438 1470 1447 1448 1449 1451 1457 1456 1459 1462 1465 1469 1472 1476 1472 1474 1476 1478 1477 1483 1481 1480 1482 1483 1484 1483
1479 1473 1467 1461 1455 1449 1444 1439 1434 1430 1424 1418 1413 1410 1409 1409 1410 1410 1413 1419 1429 1447 1459 1441 1443 1445 1450 1453 1454 1458 1462 1466 1467 1470 1470 1470 1469 1470 1470 1471 1474 1476 1481 1481 1481 1481 1470
1474 1470 1461 1456 1450 1445 1440 1435 1430 1425 1420 1412 1406 1402 1401 1404 1404 1407 1410 1416 1433 1440 1429 1436 1438 1440 1443 1449 1451 1454 1459 1462 1462 1469 1467 1463 1462 1465 1468 1472 1472 1472 1481 1477 1476 1470 1458
1471 1465 1458 1451 1446 1441 1436 1432 1426 1421 1414 1408 1398 1394 1394 1398 1401 1402 1404 1419 1420 1416 1425 1426 1431 1438 1442 1444 1447 1450 1455 1457 1459 1461 1465 1468 1466 1461 1463 1463 1464 1467 1466 1465 1461 1458 1449
1469 1462 1454 1448 1442 1437 1433 1429 1423 1417 1410 1402 1390 1390 1392 1394 1398 1401 1406 1407 1407 1411 1414 1422 1433 1438 1443 1443 1445 1448 1450 1450 1449 1454 1460 1463 1461 1458 1459 1460 1464 1466 1462 1454 1460 1454 1456
1467 1459 1452 1445 1439 1434 1430 1425 1419 1412 1406 1400 1392 1390 1391 1395 1398 1400 1408 1403 1404 1406 1408 1415 1424 1432 1437 1441 1447 1447 1448 1444 1445 1446 1451 1459 1462 1455 1455 1457 1457 1459 1458 1460 1459 1454 1442
1462 1456 1450 1443 1437 1432 1427 1423 1417 1410 1404 1397 1389 1390 1388 1391 1396 1404 1402 1408 1404 1408 1407 1413 1419 1428 1431 1435 1443 1443 1445 1443 1442 1445 1449 1456 1461 1458 1455 1449 1445 1454 1455 1453 1451 1445 1434
1459 1453 1448 1441 1435 1431 1425 1420 1414 1408 1401 1394 1390 1389 1391 1394 1401 1405 1405 1402 1401 1407 1408 1411 1415 1420 1427 1432 1436 1439 1441 1441 1439 1442 1448 1448 1453 1451 1446 1436 1435 1437 1437 1437 1439 1434 1436
1457 1451 1446 1440 1435 1430 1424 1419 1412 1406 1402 1395 1390 1387 1391 1394 1396 1400 1404 1400 1401 1408 1410 1413 1416 1419 1423 1429 1436 1437 1440 1434 1436 1439 1442 1445 1448 1451 1439 1436 1433 1433 1425 1424 1424 1426 1422
1455 1450 1445 1439 1434 1429 1425 1418 1412 1404 1398 1395 1391 1386 1389 1393 1394 1398 1401 1402 1407 1410 1413 1414 1417 1420 1423 1427 1429 1434 1438 1432 1433 1435 1437 1440 1440 1436 1421 1412 1419 1420 1416 1418 1423 1416 1407
1454 1449 1443 1438 1432 1427 1423 1417 1411 1406 1393 1389 1389 1389 1392 1394 1398 1398 1399 1403 1407 1413 1413 1415 1418 1419 1422 1426 1427 1430 1432 1431 1432 1432 1434 1439 1431 1429 1419 1412 1414 1416 1408 1409 1410 1406 1409
1452 1447 1442 1437 1431 1426 1422 1418 1410 1405 1395 1393 1392 1390 1392 1393 1397 1399 1401 1408 1409 1413 1413 1416 1418 1417 1421 1422 1422 1425 1426 1427 1424 1429 1431 1431 1423 1423 1412 1408 1406 1401 1396 1398 1398 1398 1395
1450 1445 1440 1436 1432 1425 1419 1417 1412 1407 1402 1399 1396 1393 1394 1396 1400 1402 1406 1406 1408 1410 1412 1413 1415 1417 1419 1418 1419 1420 1420 1420 1421 1422 1424 1426 1424 1419 1398 1397 1395 1387 1381 1379 1382 1387 1391
1448 1443 1438 1435 1431 1426 1421 1415 1412 1406 1402 1401 1398 1396 1395 1398 1399 1402 1401 1404 1407 1409 1411 1412 1415 1418 1416 1416 1417 1415 1414 1413 1414 1415 1416 1418 1423 1420 1403 1398 1379 1372 1370 1369 1371 1374 1377
1446 1441 1437 1433 1430 1426 1421 1417 1414 1411 1405 1398 1394 1394 1393 1394 1398 1399 1401 1403 1407 1409 1411 1413 1414 1415 1416 1416 1417 1410 1411 1410 1404 1406 1408 1410 1415 1412 1404 1394 1380 1372 1367 1368 1370 1367 1368
1444 1440 1435 1431 1427 1425 1422 1416 1412 1408 1404 1397 1393 1394 1394 1394 1395 1395 1399 1403 1406 1410 1411 1410 1411 1412 1414 1415 1416 1412 1410 1410 1409 1407 1406 1406 1410 1412 1409 1400 1381 1375 1370 1367 1366 1361 1360
1442 1438 1434 1430 1426 1421 1418 1416 1413 1408 1404 1397 1394 1392 1391 1391 1389 1393 1397 1402 1403 1406 1408 1409 1409 1411 1412 1414 1415 1411 1409 1408 1408 1405 1406 1408 1409 1408 1407 1402 1387 1375 1372 1370 1368 1369 1359
1439 1435 1432 1428 1425 1422 1418 1412 1409 1405 1401 1398 1394 1393 1392 1392 1391 1392 1394 1395 1400 1402 1405 1407 1410 1409 1411 1412 1410 1407 1406 1407 1405 1401 1399 1400 1404 1404 1399 1399 1399 1374 1375 1375 1370 1363 1363
1437 1432 1429 1426 1422 1420 1418 1416 1410 1406 1404 1401 1394 1392 1391 1392 1392 1392 1393 1395 1397 1398 1401 1404 1406 1405 1408 1408 1407 1402 1400 1407 1403 1398 1396 1400 1392 1392 1394 1388 1373 1373 1371 1369 1366 1364 1363